Regional Weather Roundup
Issued by NWS

Home | Current Version | Previous Version | Graphics & Text | Print | Product List | Glossary On
Versions: 1 2 3 4 5 6 7 8 9 10 11 12 13 14 15 16 17 18 19 20 21 22 23 24 25 26 27 28 29 30 31 32 33 34 35 36 37 38 39 40 41 42 43 44 45 46 47 48 49 50
000
ASUS43 KOAX 160910
RWRNE

WEATHER ROUNDUP FOR NEBRASKA
NATIONAL WEATHER SERVICE OMAHA NE
300 AM CST SAT DEC 16 2017

NOTES: SATELLITE DATA IS BEING USED TO AUGMENT CLOUD COVER ABOVE
       12000 FEET.
       "FAIR" INDICATES FEW OR NO CLOUDS BELOW 12,000 FEET WITH NO
       SIGNIFICANT WEATHER AND/OR OBSTRUCTIONS TO VISIBILITY.


NEZ001>004-019>022-054>056-161000-
NEBRASKA PANHANDLE

CITY           SKY/WX    TMP DP  RH WIND       PRES   REMARKS
SCOTTSBLUFF    CLOUDY    36   9  32 NW6       29.74S WCI  31
ALLIANCE       CLOUDY    24  11  57 W5        29.74R WCI  18
CHADRON        PTCLDY    26  16  65 SW10      29.74R WCI  16
GORDON         FAIR      28  20  72 W3        29.72R
KIMBALL        CLOUDY    36   7  29 CALM      29.79R
SIDNEY         CLOUDY    26   8  46 NW14      29.76S WCI  14
$$

NEZ057>060-069>072-079>082-161000-
SOUTHWEST NEBRASKA

CITY           SKY/WX    TMP DP  RH WIND       PRES   REMARKS
NORTH PLATTE   CLOUDY    23  17  78 W6        29.76R WCI  16
IMPERIAL       CLOUDY    29  13  51 CALM      29.76R
LEXINGTON      CLOUDY    25  15  67 NW6       29.75R WCI  18
MCCOOK         CLOUDY    28  12  51 W5        29.76R WCI  23
OGALLALA       CLOUDY    29  18  62 CALM      29.76R
$$

NEZ005>010-023>029-035>040-094-161000-
NORTH CENTRAL NEBRASKA

CITY           SKY/WX    TMP DP  RH WIND       PRES   REMARKS
VALENTINE      CLOUDY    31  23  72 W6        29.72R WCI  25
AINSWORTH      CLOUDY    32  25  75 W8        29.71R WCI  25
BROKEN BOW     CLOUDY    40  18  41 SE3       29.73R
O`NEILL        CLOUDY    33  26  73 W6        29.70R WCI  28
ORD            CLOUDY    23  19  85 W3        29.71R
THEDFORD       CLOUDY    32  20  61 W3        29.73R
$$

NEZ041-046>049-061>064-073>077-083>087-161000-
SOUTH CENTRAL NEBRASKA

CITY           SKY/WX    TMP DP  RH WIND       PRES   REMARKS
GRAND ISLAND   CLOUDY    33  19  56 SW8       29.73R WCI  26
AURORA         CLOUDY    32  20  61 SW12      29.73R WCI  23
HASTINGS       CLOUDY    33  15  47 SW6       29.74S WCI  28
HEBRON         CLOUDY    36  21  54 SW3       29.78R
HOLDREGE       CLOUDY    32  13  45 CALM      29.74S
KEARNEY        CLOUDY    33  13  43 W6        29.74R WCI  28
YORK           CLOUDY    32  21  64 SW9       29.74R WCI  24
$$

NEZ011>018-030>034-042>045-161000-
NORTHEAST NEBRASKA

CITY           SKY/WX    TMP DP  RH WIND       PRES   REMARKS
NORFOLK        CLOUDY    27  20  75 W3        29.69R
ALBION         CLOUDY    31  23  73 CALM      29.70R
BLAIR          CLEAR     39  23  52 SW12      29.72R WCI  32
COLUMBUS       CLOUDY    32  22  66 SW3       29.73R
FREMONT        PTCLDY    38  21  51 SW6       29.73R WCI  33
TEKAMAH        PTCLDY    30  19  63 S8        29.72R WCI  22
WAYNE          CLOUDY    32  22  67 SW3       29.69R
$$

NEZ050>053-065>068-078-088>093-161000-
SOUTHEAST NEBRASKA

CITY           SKY/WX    TMP DP  RH WIND       PRES   REMARKS
LINCOLN        CLEAR     35  20  54 S5        29.76S WCI  31
OMAHA EPPLEY   PTCLDY    32  22  66 S9        29.74R WCI  24
BEATRICE       CLOUDY    37  24  60 S9        29.78S WCI  30
FALLS CITY     CLEAR     36  23  59 S6        29.81R WCI  31
NEBRASKA CITY  CLEAR     40  25  55 SW15      29.77S WCI  31
PLATTSMOUTH    CLEAR     40  24  51 S10       29.74S WCI  34
$$

NEZ044-045-051>053-067-161000-
OMAHA AREA

CITY           SKY/WX    TMP DP  RH WIND       PRES   REMARKS
OMAHA EPPLEY   PTCLDY    32  22  66 S9        29.74R WCI  24
BLAIR          CLEAR     39  23  52 SW12      29.72R WCI  32
FREMONT        PTCLDY    38  21  51 SW6       29.73R WCI  33
MILLARD        CLEAR     43  23  45 SW6       29.74R
OFFUTT AFB     CLEAR     31  22  69 SE8       29.74R WCI  23
PLATTSMOUTH    CLEAR     40  24  51 S10       29.74S WCI  34
WAHOO          FAIR      38  20  47 SW7       29.73R WCI  33
$$



USA.gov is the U.S. government's official web portal to all federal, state and local government web resources and services.